K4HG-2 Weather Reports


Display with metric or nautical units.
time (UTC)temp
F
wind
direction
speed
MPH
gust
MPH
rain 1hr
in
rain 24hr
in
rain mn
in
humidity
%
barometer
mb
20191211170816 81 102 0.0 0.0 0.00 0.00 0.00 76 1018.7
20191211170716 81 102 0.0 0.0 0.00 0.00 0.00 76 1018.6
20191211170616 81 102 0.0 0.0 0.00 0.00 0.00 77 1018.7
20191211170516 81 102 0.0 0.0 0.00 0.00 0.00 77 1018.7
20191211170416 81 102 0.0 0.0 0.00 0.00 0.00 77 1018.7
20191211170216 81 102 0.0 4.0 0.00 0.00 0.00 76 1018.7
20191211170015 81 102 0.0 4.0 0.00 0.00 0.00 76 1018.7
20191211165916 81 102 0.0 4.0 0.00 0.00 0.00 76 1018.7
20191211165815 81 102 0.0 0.0 0.00 0.00 0.00 76 1018.7
20191211165716 81 85 1.0 0.0 0.00 0.00 0.00 76 1018.7
20191211165316 81 101 0.0 0.0 0.00 0.00 0.00 76 1018.8
20191211165216 81 101 0.0 0.0 0.00 0.00 0.00 76 1018.8
20191211165116 81 101 0.0 0.0 0.00 0.00 0.00 76 1018.8
20191211165015 81 101 0.0 0.0 0.00 0.00 0.00 76 1018.9
20191211164916 81 101 0.0 0.0 0.00 0.00 0.00 76 1018.9
20191211164815 81 101 0.0 5.0 0.00 0.00 0.00 76 1018.9
20191211164516 81 101 0.0 5.0 0.00 0.00 0.00 76 1018.9
20191211164415 81 101 0.0 5.0 0.00 0.00 0.00 76 1019.0
20191211164316 81 101 0.0 3.0 0.00 0.00 0.00 76 1019.0
20191211164216 81 101 0.0 3.0 0.00 0.00 0.00 76 1019.0
20191211164115 81 101 0.0 3.0 0.00 0.00 0.00 76 1019.0
20191211163916 81 151 0.0 3.0 0.00 0.00 0.00 76 1019.1
20191211163816 81 90 0.0 3.0 0.00 0.00 0.00 76 1019.1
20191211163715 81 64 2.0 3.0 0.00 0.00 0.00 76 1019.0
20191211163616 81 109 0.0 3.0 0.00 0.00 0.00 76 1019.0
20191211163515 81 57 0.0 3.0 0.00 0.00 0.00 76 1019.0
20191211163217 81 91 0.0 0.0 0.00 0.00 0.00 76 1019.0
20191211163115 81 91 0.0 0.0 0.00 0.00 0.00 76 1019.0
20191211162917 81 91 0.0 0.0 0.00 0.00 0.00 76 1019.0
20191211162816 81 91 0.0 0.0 0.00 0.00 0.00 76 1019.1
20191211162716 81 91 0.0 0.0 0.00 0.00 0.00 76 1019.1
20191211162516 81 91 0.0 0.0 0.00 0.00 0.00 75 1019.2
20191211162416 81 91 0.0 0.0 0.00 0.00 0.00 76 1019.1
20191211162216 81 91 0.0 2.0 0.00 0.00 0.00 76 1019.1
20191211162116 81 91 0.0 2.0 0.00 0.00 0.00 75 1019.2
20191211161915 81 91 0.0 2.0 0.00 0.00 0.00 75 1019.2
20191211161816 81 91 0.0 2.0 0.00 0.00 0.00 75 1019.2
20191211161715 81 91 0.0 2.0 0.00 0.00 0.00 75 1019.2
20191211161616 81 91 0.0 2.0 0.00 0.00 0.00 75 1019.2
20191211161515 81 91 0.0 2.0 0.00 0.00 0.00 75 1019.2
20191211161316 81 87 1.0 0.0 0.00 0.00 0.00 75 1019.3
20191211161215 81 78 1.0 0.0 0.00 0.00 0.00 75 1019.3
20191211161016 81 52 0.0 0.0 0.00 0.00 0.00 75 1019.4
20191211160915 81 52 0.0 0.0 0.00 0.00 0.00 75 1019.4
20191211160516 81 52 0.0 0.0 0.00 0.00 0.00 74 1019.4
20191211160315 81 52 0.0 0.0 0.00 0.00 0.00 74 1019.3
20191211160216 81 52 0.0 0.0 0.00 0.00 0.00 74 1019.3
20191211160015 81 52 0.0 0.0 0.00 0.00 0.00 74 1019.3
20191211155916 82 52 0.0 0.0 0.00 0.00 0.00 74 1019.3
20191211155815 82 52 0.0 0.0 0.00 0.00 0.00 73 1019.3
20191211155716 82 52 0.0 0.0 0.00 0.00 0.00 73 1019.2
20191211155616 82 52 0.0 0.0 0.00 0.00 0.00 73 1019.2
20191211155515 82 52 0.0 0.0 0.00 0.00 0.00 73 1019.2
20191211155416 82 52 0.0 0.0 0.00 0.00 0.00 73 1019.2
20191211155015 82 52 0.0 0.0 0.00 0.00 0.00 72 1019.1
20191211154916 82 52 0.0 0.0 0.00 0.00 0.00 72 1019.1
20191211154615 82 52 0.0 0.0 0.00 0.00 0.00 72 1019.2
20191211154516 82 52 0.0 0.0 0.00 0.00 0.00 72 1019.2
20191211154415 82 52 0.0 0.0 0.00 0.00 0.00 72 1019.2
20191211154316 82 52 0.0 0.0 0.00 0.00 0.00 71 1019.2
20191211154215 82 52 0.0 0.0 0.00 0.00 0.00 72 1019.3
20191211154116 82 52 0.0 0.0 0.00 0.00 0.00 72 1019.2
20191211154016 82 52 0.0 0.0 0.00 0.00 0.00 72 1019.2
20191211153916 82 52 0.0 0.0 0.00 0.00 0.00 72 1019.2
20191211153815 82 52 0.0 0.0 0.00 0.00 0.00 73 1019.3
20191211153716 82 52 0.0 0.0 0.00 0.00 0.00 73 1019.3
20191211153616 82 52 0.0 0.0 0.00 0.00 0.00 72 1019.4
20191211153316 82 52 0.0 7.0 0.00 0.00 0.00 73 1019.4
20191211153016 82 52 0.0 7.0 0.00 0.00 0.00 73 1019.4
20191211152915 82 52 0.0 7.0 0.00 0.00 0.00 73 1019.4
20191211152816 82 52 0.0 7.0 0.00 0.00 0.00 73 1019.4
20191211152715 82 52 0.0 7.0 0.00 0.00 0.00 73 1019.4
20191211152616 82 123 1.0 7.0 0.00 0.00 0.00 73 1019.4
20191211152515 82 81 3.0 7.0 0.00 0.00 0.00 73 1019.3
20191211152416 82 92 2.0 7.0 0.00 0.00 0.00 73 1019.3
20191211152315 82 142 2.0 7.0 0.00 0.00 0.00 73 1019.3
20191211152216 82 102 5.0 7.0 0.00 0.00 0.00 73 1019.2
20191211152115 82 97 0.0 7.0 0.00 0.00 0.00 73 1019.2
20191211151816 82 112 3.0 9.0 0.00 0.00 0.00 74 1019.0
20191211151715 82 111 5.0 9.0 0.00 0.00 0.00 74 1019.0
20191211151616 82 90 3.0 9.0 0.00 0.00 0.00 74 1019.0
20191211151515 82 71 0.0 9.0 0.00 0.00 0.00 74 1019.1
20191211151416 82 60 5.0 9.0 0.00 0.00 0.00 74 1019.1
20191211151315 82 60 5.0 7.0 0.00 0.00 0.00 74 1019.1
20191211151216 82 87 8.0 7.0 0.00 0.00 0.00 74 1019.0
20191211151115 81 80 2.0 7.0 0.00 0.00 0.00 74 1019.1
20191211150916 82 108 1.0 7.0 0.00 0.00 0.00 75 1019.2
20191211150616 81 97 0.0 7.0 0.00 0.00 0.00 75 1019.2
20191211150516 82 97 0.0 7.0 0.00 0.00 0.00 75 1019.2
20191211150416 81 92 2.0 7.0 0.00 0.00 0.00 75 1019.2
20191211150116 81 95 5.0 7.0 0.00 0.00 0.00 75 1019.3
20191211145916 81 109 4.0 7.0 0.00 0.00 0.00 75 1019.3
20191211145716 81 101 1.0 5.0 0.00 0.00 0.00 75 1019.3
20191211145616 81 135 0.0 5.0 0.00 0.00 0.00 75 1019.3
20191211145516 81 135 0.0 5.0 0.00 0.00 0.00 75 1019.3
20191211145416 81 90 4.0 5.0 0.00 0.00 0.00 75 1019.3
20191211145316 81 67 2.0 5.0 0.00 0.00 0.00 75 1019.3
20191211145216 81 135 0.0 5.0 0.00 0.00 0.00 75 1019.3
20191211145016 81 85 0.0 5.0 0.00 0.00 0.00 75 1019.3
20191211144916 81 53 0.0 5.0 0.00 0.00 0.00 75 1019.3
20191211144816 81 112 3.0 5.0 0.00 0.00 0.00 75 1019.3
20191211144715 81 42 0.0 5.0 0.00 0.00 0.00 75 1019.3
20191211144616 81 37 0.0 5.0 0.00 0.00 0.00 75 1019.3
20191211144516 81 127 2.0 5.0 0.00 0.00 0.00 76 1019.3
20191211144216 81 98 1.0 2.0 0.00 0.00 0.00 76 1019.4
20191211144116 81 63 0.0 2.0 0.00 0.00 0.00 76 1019.4
20191211143916 81 66 2.0 2.0 0.00 0.00 0.00 76 1019.3
20191211143816 81 94 0.0 7.0 0.00 0.00 0.00 76 1019.3
20191211143715 81 94 0.0 7.0 0.00 0.00 0.00 76 1019.3
20191211143616 81 94 0.0 7.0 0.00 0.00 0.00 76 1019.3
20191211143515 81 94 0.0 7.0 0.00 0.00 0.00 76 1019.3
20191211143316 81 94 0.0 7.0 0.00 0.00 0.00 76 1019.2
20191211143215 81 68 4.0 7.0 0.00 0.00 0.00 76 1019.3
20191211143116 81 101 4.0 7.0 0.00 0.00 0.00 76 1019.2
20191211143016 81 85 4.0 7.0 0.00 0.00 0.00 76 1019.2
20191211142916 81 105 2.0 7.0 0.00 0.00 0.00 76 1019.2
20191211142816 81 109 5.0 6.0 0.00 0.00 0.00 75 1019.2
20191211142616 81 95 4.0 6.0 0.00 0.00 0.00 76 1019.1
20191211142416 81 109 4.0 6.0 0.00 0.00 0.00 76 1019.2
20191211142215 81 85 3.0 7.0 0.00 0.00 0.00 76 1019.1
20191211142116 81 113 4.0 7.0 0.00 0.00 0.00 76 1019.1
20191211142016 81 95 3.0 7.0 0.00 0.00 0.00 76 1019.1
20191211141916 81 87 3.0 7.0 0.00 0.00 0.00 76 1019.1
20191211141815 81 98 2.0 0.0 0.00 0.00 0.00 76 1019.1
20191211141716 81 104 4.0 0.0 0.00 0.00 0.00 76 1019.1
20191211141615 81 64 0.0 0.0 0.00 0.00 0.00 76 1019.0
20191211141516 81 64 0.0 0.0 0.00 0.00 0.00 76 1019.0
20191211141415 81 64 0.0 0.0 0.00 0.00 0.00 76 1019.0
20191211141316 81 64 0.0 0.0 0.00 0.00 0.00 76 1019.0
20191211141116 81 64 0.0 0.0 0.00 0.00 0.00 77 1019.0
20191211141015 81 64 0.0 0.0 0.00 0.00 0.00 77 1019.0
20191211140616 80 64 0.0 0.0 0.00 0.00 0.00 77 1018.9
20191211140515 80 64 0.0 0.0 0.00 0.00 0.00 77 1018.9
20191211140416 80 64 0.0 0.0 0.00 0.00 0.00 77 1018.9
20191211140315 80 64 0.0 0.0 0.00 0.00 0.00 77 1018.8
20191211140217 80 64 0.0 0.0 0.00 0.00 0.00 77 1018.8
20191211140115 80 64 0.0 0.0 0.00 0.00 0.00 77 1018.8
20191211140016 80 64 0.0 0.0 0.00 0.00 0.00 78 1018.8
20191211135916 80 64 0.0 0.0 0.00 0.00 0.00 78 1018.8
20191211135816 80 64 0.0 0.0 0.00 0.00 0.00 78 1018.8
20191211135716 80 64 0.0 0.0 0.00 0.00 0.00 78 1018.7
20191211135616 80 64 0.0 0.0 0.00 0.00 0.00 78 1018.8
20191211135516 80 64 0.0 0.0 0.00 0.00 0.00 78 1018.8
20191211135415 80 64 0.0 0.0 0.00 0.00 0.00 78 1018.8
20191211135216 80 64 0.0 0.0 0.00 0.00 0.00 79 1018.8
20191211134815 80 64 0.0 0.0 0.00 0.00 0.00 79 1018.8
20191211134615 80 64 0.0 0.0 0.00 0.00 0.00 79 1018.8
20191211134516 80 64 0.0 0.0 0.00 0.00 0.00 79 1018.7
20191211134215 80 64 0.0 0.0 0.00 0.00 0.00 79 1018.7
20191211134116 80 64 0.0 0.0 0.00 0.00 0.00 79 1018.7
20191211133915 80 64 0.0 0.0 0.00 0.00 0.00 79 1018.6
20191211133816 80 64 0.0 0.0 0.00 0.00 0.00 80 1018.6
20191211133615 80 64 0.0 0.0 0.00 0.00 0.00 79 1018.6
20191211133516 80 64 0.0 0.0 0.00 0.00 0.00 79 1018.5
20191211133315 80 64 0.0 0.0 0.00 0.00 0.00 80 1018.5
20191211133216 80 64 0.0 0.0 0.00 0.00 0.00 80 1018.5
20191211133115 80 64 0.0 0.0 0.00 0.00 0.00 80 1018.5
20191211132916 80 64 0.0 0.0 0.00 0.00 0.00 80 1018.5
20191211132615 80 64 0.0 0.0 0.00 0.00 0.00 80 1018.5
20191211132416 80 64 0.0 0.0 0.00 0.00 0.00 80 1018.5
20191211132315 80 64 0.0 0.0 0.00 0.00 0.00 80 1018.4
20191211132216 80 64 0.0 0.0 0.00 0.00 0.00 80 1018.4
20191211131715 80 64 0.0 0.0 0.00 0.00 0.00 81 1018.3
20191211131416 80 64 0.0 0.0 0.00 0.00 0.00 81 1018.3
20191211131315 80 64 0.0 0.0 0.00 0.00 0.00 81 1018.3
20191211131116 80 64 0.0 0.0 0.00 0.00 0.00 81 1018.3
20191211131015 80 64 0.0 0.0 0.00 0.00 0.00 82 1018.2
20191211130816 80 64 0.0 0.0 0.00 0.00 0.00 82 1018.2
20191211130715 80 64 0.0 0.0 0.00 0.00 0.00 82 1018.2
20191211130516 80 64 0.0 0.0 0.00 0.00 0.00 82 1018.2
20191211130315 80 64 0.0 0.0 0.00 0.00 0.00 83 1018.2
20191211130116 80 64 0.0 0.0 0.00 0.00 0.00 83 1018.2
20191211130016 80 64 0.0 0.0 0.00 0.00 0.00 83 1018.2
20191211125715 79 64 0.0 0.0 0.00 0.00 0.00 84 1018.2
20191211125615 79 64 0.0 0.0 0.00 0.00 0.00 84 1018.2
20191211125516 79 64 0.0 0.0 0.00 0.00 0.00 84 1018.2
20191211125315 79 64 0.0 0.0 0.00 0.00 0.00 84 1018.2
20191211125016 79 64 0.0 0.0 0.00 0.00 0.00 84 1018.2
20191211124915 79 64 0.0 0.0 0.00 0.00 0.00 84 1018.1
20191211124616 79 64 0.0 0.0 0.00 0.00 0.00 84 1018.1
20191211124415 79 64 0.0 0.0 0.00 0.00 0.00 85 1018.0
20191211124115 79 64 0.0 0.0 0.00 0.00 0.00 85 1018.0
20191211124016 79 64 0.0 0.0 0.00 0.00 0.00 85 1018.0
20191211123715 79 64 0.0 0.0 0.00 0.00 0.00 85 1017.9
20191211123616 79 64 0.0 0.0 0.00 0.00 0.00 85 1017.9
20191211123315 79 64 0.0 0.0 0.00 0.00 0.00 85 1017.9
20191211123116 78 64 0.0 0.0 0.00 0.00 0.00 85 1017.9
20191211123015 78 64 0.0 0.0 0.00 0.00 0.00 85 1017.9
20191211122716 79 64 0.0 0.0 0.00 0.00 0.00 85 1017.8
20191211122616 78 64 0.0 0.0 0.00 0.00 0.00 85 1017.8
20191211122316 79 64 0.0 0.0 0.00 0.00 0.00 85 1017.7
20191211121815 79 64 0.0 0.0 0.00 0.00 0.00 85 1017.6
20191211121716 78 64 0.0 0.0 0.00 0.00 0.00 85 1017.6
20191211121615 78 64 0.0 0.0 0.00 0.00 0.00 85 1017.7
20191211121516 78 64 0.0 0.0 0.00 0.00 0.00 85 1017.7
20191211121316 78 64 0.0 0.0 0.00 0.00 0.00 85 1017.7
20191211121216 78 64 0.0 0.0 0.00 0.00 0.00 85 1017.7
20191211121116 78 64 0.0 0.0 0.00 0.00 0.00 85 1017.6
20191211120616 78 64 0.0 0.0 0.00 0.00 0.00 85 1017.5
20191211120316 78 64 0.0 0.0 0.00 0.00 0.00 85 1017.4
20191211120216 78 64 0.0 0.0 0.00 0.00 0.00 85 1017.4
20191211120016 78 64 0.0 0.0 0.00 0.00 0.00 85 1017.4
20191211115516 78 64 0.0 0.0 0.00 0.00 0.00 85 1017.4
20191211115315 78 64 0.0 0.0 0.00 0.00 0.00 86 1017.4
20191211115216 79 64 0.0 0.0 0.00 0.00 0.00 86 1017.4
20191211114915 78 64 0.0 0.0 0.00 0.00 0.00 86 1017.4
20191211114816 78 64 0.0 0.0 0.00 0.00 0.00 86 1017.4
20191211114517 78 64 0.0 0.0 0.00 0.00 0.00 86 1017.5
20191211114216 78 64 0.0 0.0 0.00 0.00 0.00 86 1017.4
20191211114016 79 64 0.0 0.0 0.00 0.00 0.00 86 1017.5
20191211113915 78 64 0.0 0.0 0.00 0.00 0.00 86 1017.5
20191211113816 78 64 0.0 0.0 0.00 0.00 0.00 86 1017.4
20191211113715 78 64 0.0 0.0 0.00 0.00 0.00 86 1017.4
20191211113516 79 64 0.0 0.0 0.00 0.00 0.00 86 1017.4
20191211113315 78 64 0.0 0.0 0.00 0.00 0.00 86 1017.4
20191211113216 78 64 0.0 0.0 0.00 0.00 0.00 86 1017.4
20191211113116 78 64 0.0 0.0 0.00 0.00 0.00 86 1017.4
20191211113016 78 64 0.0 0.0 0.00 0.00 0.00 86 1017.4
20191211112916 78 64 0.0 0.0 0.00 0.00 0.00 86 1017.3
20191211112715 78 64 0.0 0.0 0.00 0.00 0.00 86 1017.3
20191211112516 78 64 0.0 0.0 0.00 0.00 0.00 86 1017.3
20191211112415 78 64 0.0 0.0 0.00 0.00 0.00 86 1017.3
20191211112216 79 64 0.0 0.0 0.00 0.00 0.00 86 1017.2
20191211112116 78 64 0.0 0.0 0.00 0.00 0.00 85 1017.1
20191211112016 78 64 0.0 0.0 0.00 0.00 0.00 86 1017.1
20191211111815 78 64 0.0 0.0 0.00 0.00 0.00 85 1017.0
20191211111716 78 64 0.0 0.0 0.00 0.00 0.00 85 1017.0
20191211111516 78 64 0.0 0.0 0.00 0.00 0.00 85 1017.0
20191211111416 78 64 0.0 0.0 0.00 0.00 0.00 85 1017.0
20191211111315 78 64 0.0 0.0 0.00 0.00 0.00 85 1017.0
20191211111216 79 64 0.0 0.0 0.00 0.00 0.00 85 1017.0
20191211111115 78 64 0.0 0.0 0.00 0.00 0.00 85 1017.0
20191211110616 78 64 0.0 0.0 0.00 0.00 0.00 85 1017.0
20191211110516 78 64 0.0 0.0 0.00 0.00 0.00 85 1017.0
20191211110416 78 64 0.0 0.0 0.00 0.00 0.00 85 1017.0
20191211110216 79 64 0.0 0.0 0.00 0.00 0.00 85 1017.0
20191211110116 78 64 0.0 0.0 0.00 0.00 0.00 85 1017.0
20191211110016 79 64 0.0 0.0 0.00 0.00 0.00 85 1017.0
20191211105815 78 64 0.0 0.0 0.00 0.00 0.00 85 1017.0
20191211105716 78 64 0.0 0.0 0.00 0.00 0.00 85 1017.0
20191211105616 78 64 0.0 0.0 0.00 0.00 0.00 85 1017.0
20191211105315 78 64 0.0 0.0 0.00 0.00 0.00 85 1016.9
20191211105216 78 64 0.0 0.0 0.00 0.00 0.00 85 1016.8
20191211104516 78 64 0.0 0.0 0.00 0.00 0.00 85 1016.6
20191211104415 78 64 0.0 0.0 0.00 0.00 0.00 85 1016.6
20191211104315 78 64 0.0 0.0 0.00 0.00 0.00 85 1016.6
20191211104216 79 64 0.0 0.0 0.00 0.00 0.00 85 1016.6
20191211104115 78 64 0.0 0.0 0.00 0.00 0.00 85 1016.6
20191211104016 78 64 0.0 0.0 0.00 0.00 0.00 85 1016.6
20191211103915 78 64 0.0 0.0 0.00 0.00 0.00 85 1016.6
20191211103816 78 64 0.0 0.0 0.00 0.00 0.00 85 1016.6
20191211103716 78 64 0.0 0.0 0.00 0.00 0.00 85 1016.6
20191211103515 78 64 0.0 0.0 0.00 0.00 0.00 85 1016.5
20191211103416 78 64 0.0 0.0 0.00 0.00 0.00 85 1016.6
20191211103315 78 64 0.0 0.0 0.00 0.00 0.00 85 1016.5
20191211103216 78 64 0.0 0.0 0.00 0.00 0.00 85 1016.6
20191211103115 78 64 0.0 0.0 0.00 0.00 0.00 85 1016.6
20191211103016 78 64 0.0 0.0 0.00 0.00 0.00 85 1016.5
20191211102915 79 64 0.0 0.0 0.00 0.00 0.00 85 1016.6
20191211102816 78 64 0.0 0.0 0.00 0.00 0.00 85 1016.6
20191211102716 79 64 0.0 0.0 0.00 0.00 0.00 85 1016.6
20191211102516 79 64 0.0 0.0 0.00 0.00 0.00 85 1016.6
20191211102315 78 64 0.0 0.0 0.00 0.00 0.00 85 1016.6
20191211102216 79 64 0.0 0.0 0.00 0.00 0.00 85 1016.6
20191211102116 78 64 0.0 0.0 0.00 0.00 0.00 85 1016.6
20191211102016 78 64 0.0 0.0 0.00 0.00 0.00 85 1016.5
20191211101916 79 64 0.0 0.0 0.00 0.00 0.00 85 1016.5
20191211101516 79 64 0.0 0.0 0.00 0.00 0.00 85 1016.5
20191211101416 78 64 0.0 0.0 0.00 0.00 0.00 85 1016.5
20191211101315 79 64 0.0 0.0 0.00 0.00 0.00 85 1016.6
20191211101216 78 64 0.0 0.0 0.00 0.00 0.00 85 1016.6
20191211101115 78 64 0.0 0.0 0.00 0.00 0.00 85 1016.6
20191211101016 78 64 0.0 0.0 0.00 0.00 0.00 85 1016.6
20191211100915 78 64 0.0 0.0 0.00 0.00 0.00 85 1016.6
20191211100616 78 64 0.0 0.0 0.00 0.00 0.00 84 1016.6
20191211100515 79 64 0.0 0.0 0.00 0.00 0.00 84 1016.5
20191211100416 78 64 0.0 0.0 0.00 0.00 0.00 84 1016.5
20191211100315 79 64 0.0 0.0 0.00 0.00 0.00 84 1016.5
20191211100216 78 64 0.0 0.0 0.00 0.00 0.00 84 1016.5
20191211100115 78 64 0.0 0.0 0.00 0.00 0.00 84 1016.5
20191211095916 79 64 0.0 0.0 0.00 0.00 0.00 84 1016.5
20191211095715 78 64 0.0 0.0 0.00 0.00 0.00 84 1016.5
20191211095616 79 64 0.0 0.0 0.00 0.00 0.00 84 1016.5
20191211095515 79 64 0.0 0.0 0.00 0.00 0.00 84 1016.5
20191211095416 79 64 0.0 0.0 0.00 0.00 0.00 84 1016.5
20191211095115 79 64 0.0 0.0 0.00 0.00 0.00 84 1016.5
20191211095016 79 64 0.0 0.0 0.00 0.00 0.00 84 1016.5
20191211094915 79 64 0.0 0.0 0.00 0.00 0.00 84 1016.5
20191211094816 79 64 0.0 0.0 0.00 0.00 0.00 84 1016.5
20191211094715 79 64 0.0 0.0 0.00 0.00 0.00 84 1016.5
20191211094616 79 64 0.0 0.0 0.00 0.00 0.00 84 1016.5
20191211094515 79 64 0.0 0.0 0.00 0.00 0.00 84 1016.5
20191211094416 79 64 0.0 0.0 0.00 0.00 0.00 84 1016.5
20191211094315 79 64 0.0 0.0 0.00 0.00 0.00 84 1016.5
20191211094216 79 64 0.0 0.0 0.00 0.00 0.00 84 1016.5
20191211094115 79 64 0.0 0.0 0.00 0.00 0.00 84 1016.5
20191211093116 79 64 0.0 0.0 0.00 0.00 0.00 84 1016.5
20191211093016 79 64 0.0 0.0 0.00 0.00 0.00 84 1016.5
20191211092916 78 64 0.0 0.0 0.00 0.00 0.00 84 1016.5
20191211092715 79 64 0.0 0.0 0.00 0.00 0.00 84 1016.5
20191211092617 79 64 0.0 0.0 0.00 0.00 0.00 84 1016.5
20191211092517 79 64 0.0 0.0 0.00 0.00 0.00 84 1016.5
20191211092416 79 64 0.0 0.0 0.00 0.00 0.00 84 1016.5
20191211092216 79 64 0.0 0.0 0.00 0.00 0.00 84 1016.5
20191211091916 79 64 0.0 0.0 0.00 0.00 0.00 84 1016.5
20191211091815 79 64 0.0 0.0 0.00 0.00 0.00 84 1016.5
20191211091616 79 64 0.0 0.0 0.00 0.00 0.00 84 1016.6
20191211091415 79 64 0.0 0.0 0.00 0.00 0.00 84 1016.6
20191211091316 79 64 0.0 0.0 0.00 0.00 0.00 84 1016.6
20191211091215 79 64 0.0 0.0 0.00 0.00 0.00 84 1016.6
20191211091116 79 64 0.0 0.0 0.00 0.00 0.00 84 1016.6
20191211091015 79 64 0.0 0.0 0.00 0.00 0.00 84 1016.6
20191211090715 79 64 0.0 0.0 0.00 0.00 0.00 84 1016.5
20191211090616 79 64 0.0 0.0 0.00 0.00 0.00 84 1016.5
20191211090515 78 64 0.0 0.0 0.00 0.00 0.00 84 1016.4
20191211090416 79 64 0.0 0.0 0.00 0.00 0.00 84 1016.4
20191211090015 79 64 0.0 0.0 0.00 0.00 0.00 84 1016.4
20191211085916 79 64 0.0 0.0 0.00 0.00 0.00 84 1016.3
20191211085815 79 64 0.0 0.0 0.00 0.00 0.00 84 1016.3
20191211085716 79 64 0.0 0.0 0.00 0.00 0.00 84 1016.3
20191211085515 79 64 0.0 0.0 0.00 0.00 0.00 84 1016.3
20191211085316 79 64 0.0 0.0 0.00 0.00 0.00 84 1016.3
20191211085215 79 64 0.0 0.0 0.00 0.00 0.00 84 1016.3
20191211085116 79 64 0.0 0.0 0.00 0.00 0.00 84 1016.3
20191211085016 79 64 0.0 0.0 0.00 0.00 0.00 84 1016.3
20191211084816 79 64 0.0 0.0 0.00 0.00 0.00 84 1016.3
20191211084615 79 64 0.0 0.0 0.00 0.00 0.00 84 1016.3
20191211084516 79 64 0.0 0.0 0.00 0.00 0.00 84 1016.3
20191211084415 79 64 0.0 0.0 0.00 0.00 0.00 84 1016.3
20191211084216 79 64 0.0 0.0 0.00 0.00 0.00 84 1016.3
20191211084115 79 64 0.0 0.0 0.00 0.00 0.00 84 1016.3
20191211084016 79 64 0.0 0.0 0.00 0.00 0.00 84 1016.3
20191211083916 79 64 0.0 0.0 0.00 0.00 0.00 84 1016.3
20191211083816 79 64 0.0 4.0 0.00 0.00 0.00 84 1016.3
20191211083316 79 64 0.0 3.0 0.00 0.00 0.00 84 1016.3
20191211083216 79 64 0.0 3.0 0.00 0.00 0.00 84 1016.3
20191211083016 79 85 2.0 3.0 0.00 0.00 0.00 84 1016.3
20191211082916 79 84 0.0 3.0 0.00 0.00 0.00 84 1016.3
20191211082716 79 109 1.0 4.0 0.00 0.00 0.00 84 1016.3
20191211082617 79 82 0.0 4.0 0.00 0.00 0.00 84 1016.4
20191211082216 79 164 1.0 6.0 0.00 0.00 0.00 84 1016.3
20191211082116 79 52 0.0 6.0 0.00 0.00 0.00 84 1016.4
20191211081816 79 88 0.0 3.0 0.00 0.00 0.00 84 1016.4
20191211081616 79 97 1.0 3.0 0.00 0.00 0.00 84 1016.3
20191211081516 79 91 2.0 3.0 0.00 0.00 0.00 84 1016.3
20191211081416 79 63 0.0 3.0 0.00 0.00 0.00 84 1016.3
20191211081316 79 102 1.0 5.0 0.00 0.00 0.00 84 1016.2
20191211081216 79 84 1.0 5.0 0.00 0.00 0.00 84 1016.2
20191211081115 79 74 0.0 5.0 0.00 0.00 0.00 84 1016.2
20191211081016 79 74 0.0 5.0 0.00 0.00 0.00 84 1016.2
20191211080815 79 74 0.0 6.0 0.00 0.00 0.00 84 1016.2
20191211080716 79 74 0.0 6.0 0.00 0.00 0.00 84 1016.2
20191211080615 79 74 0.0 6.0 0.00 0.00 0.00 84 1016.2
20191211080416 79 74 0.0 6.0 0.00 0.00 0.00 84 1016.2
20191211080215 79 74 0.0 7.0 0.00 0.00 0.00 84 1016.2
20191211075916 79 70 3.0 7.0 0.00 0.00 0.00 84 1016.2
20191211075416 79 112 2.0 5.0 0.00 0.00 0.00 84 1016.3
20191211075315 79 82 4.0 0.0 0.00 0.00 0.00 84 1016.3
20191211075116 79 67 0.0 0.0 0.00 0.00 0.00 84 1016.3
20191211074815 79 67 0.0 4.0 0.00 0.00 0.00 84 1016.3
20191211074716 79 67 0.0 4.0 0.00 0.00 0.00 84 1016.3
20191211074615 79 67 0.0 4.0 0.00 0.00 0.00 84 1016.3
20191211074516 79 67 0.0 4.0 0.00 0.00 0.00 83 1016.3
20191211074315 79 67 0.0 0.0 0.00 0.00 0.00 83 1016.4
20191211074216 79 67 0.0 0.0 0.00 0.00 0.00 83 1016.3
20191211074115 79 67 0.0 0.0 0.00 0.00 0.00 83 1016.4
20191211074016 79 92 2.0 0.0 0.00 0.00 0.00 83 1016.3
20191211073915 79 81 0.0 0.0 0.00 0.00 0.00 83 1016.4
20191211073816 79 85 0.0 2.0 0.00 0.00 0.00 83 1016.4
20191211073715 79 85 0.0 2.0 0.00 0.00 0.00 83 1016.4
20191211073516 79 85 0.0 2.0 0.00 0.00 0.00 83 1016.4
20191211073415 79 85 0.0 2.0 0.00 0.00 0.00 83 1016.4
20191211073216 79 85 0.0 4.0 0.00 0.00 0.00 83 1016.4
20191211073116 79 85 0.0 4.0 0.00 0.00 0.00 83 1016.4
20191211073016 79 85 0.0 4.0 0.00 0.00 0.00 83 1016.4
20191211072915 79 85 0.0 4.0 0.00 0.00 0.00 83 1016.4
20191211072816 79 78 1.0 4.0 0.00 0.00 0.00 83 1016.4
20191211072716 79 87 0.0 4.0 0.00 0.00 0.00 83 1016.4
20191211072616 79 87 0.0 4.0 0.00 0.00 0.00 83 1016.4
20191211072415 79 47 0.0 4.0 0.00 0.00 0.00 83 1016.4
20191211072316 79 99 3.0 2.0 0.00 0.00 0.00 83 1016.4
20191211072215 79 43 0.0 2.0 0.00 0.00 0.00 83 1016.4
20191211072116 79 87 0.0 2.0 0.00 0.00 0.00 83 1016.4
20191211072016 79 98 1.0 2.0 0.00 0.00 0.00 83 1016.4
20191211071916 79 47 0.0 2.0 0.00 0.00 0.00 83 1016.5
20191211071516 79 81 1.0 6.0 0.00 0.00 0.00 83 1016.4
20191211071415 79 78 0.0 6.0 0.00 0.00 0.00 83 1016.4
20191211071116 79 139 0.0 5.0 0.00 0.00 0.00 83 1016.4
20191211070915 79 191 1.0 5.0 0.00 0.00 0.00 83 1016.4
20191211070716 79 98 0.0 4.0 0.00 0.00 0.00 83 1016.4
20191211070515 79 64 1.0 4.0 0.00 0.00 0.00 83 1016.4
20191211070416 79 113 0.0 4.0 0.00 0.00 0.00 83 1016.4
20191211070316 79 73 1.0 5.0 0.00 0.00 0.00 83 1016.4
20191211070116 79 91 0.0 5.0 0.00 0.00 0.00 83 1016.4
20191211070015 79 91 0.0 5.0 0.00 0.00 0.00 83 1016.4
20191211065716 79 126 0.0 6.0 0.00 0.00 0.00 83 1016.4
20191211065317 79 97 0.0 5.0 0.00 0.00 0.00 83 1016.4
20191211065216 79 97 0.0 5.0 0.00 0.00 0.00 83 1016.5
20191211065115 79 116 1.0 5.0 0.00 0.00 0.00 83 1016.5
20191211064817 79 47 1.0 5.0 0.00 0.00 0.00 83 1016.5
20191211064716 79 67 0.0 5.0 0.00 0.00 0.00 83 1016.4
20191211064616 79 144 0.0 5.0 0.00 0.00 0.00 83 1016.4
20191211064315 79 74 1.0 6.0 0.00 0.00 0.00 83 1016.5
20191211064116 79 88 1.0 6.0 0.00 0.00 0.00 83 1016.5
20191211064015 79 97 3.0 6.0 0.00 0.00 0.00 83 1016.4
20191211063816 79 127 2.0 7.0 0.00 0.00 0.00 83 1016.4
20191211063616 79 45 3.0 7.0 0.00 0.00 0.00 83 1016.5
20191211063516 79 149 0.0 7.0 0.00 0.00 0.00 83 1016.5
20191211063416 79 106 3.0 7.0 0.00 0.00 0.00 83 1016.4
20191211063315 79 43 0.0 8.0 0.00 0.00 0.00 83 1016.5
20191211063216 79 127 1.0 8.0 0.00 0.00 0.00 83 1016.5
20191211063016 79 106 0.0 8.0 0.00 0.00 0.00 83 1016.5
20191211062616 79 241 1.0 6.0 0.00 0.00 0.00 83 1016.4
20191211062515 79 53 3.0 6.0 0.00 0.00 0.00 83 1016.4
20191211062316 79 109 3.0 4.0 0.00 0.00 0.00 83 1016.4
20191211062215 79 104 0.0 4.0 0.00 0.00 0.00 83 1016.5
20191211062116 79 99 0.0 4.0 0.00 0.00 0.00 83 1016.4
20191211062015 79 99 5.0 4.0 0.00 0.00 0.00 83 1016.4
20191211061916 79 157 0.0 4.0 0.00 0.00 0.00 83 1016.5
20191211061815 79 82 2.0 0.0 0.00 0.00 0.00 83 1016.5
20191211061716 79 101 0.0 0.0 0.00 0.00 0.00 83 1016.5
20191211061615 79 101 0.0 0.0 0.00 0.00 0.00 83 1016.5
20191211061516 79 101 0.0 0.0 0.00 0.00 0.00 83 1016.5
20191211061415 79 101 0.0 0.0 0.00 0.00 0.00 83 1016.5
20191211061316 79 101 0.0 4.0 0.00 0.00 0.00 83 1016.5
20191211061215 79 101 0.0 4.0 0.00 0.00 0.00 83 1016.5
20191211060916 79 101 0.0 4.0 0.00 0.00 0.00 82 1016.5
20191211060615 79 147 2.0 9.0 0.00 0.00 0.00 82 1016.5
20191211060416 79 52 0.0 9.0 0.00 0.00 0.00 82 1016.6
20191211051816 79 122 0.0 0.0 0.00 0.00 0.00 82 1016.9
20191211051716 79 66 0.0 0.0 0.00 0.00 0.00 82 1016.9
20191211051516 79 67 0.0 0.0 0.00 0.00 0.00 82 1016.9
20191211051415 79 67 0.0 0.0 0.00 0.00 0.00 82 1016.9
20191211051316 79 67 0.0 3.0 0.00 0.00 0.00 82 1016.9
20191211051215 79 67 0.0 3.0 0.00 0.00 0.00 82 1016.9
20191211051116 79 67 0.0 3.0 0.00 0.00 0.00 82 1016.9
20191211051015 79 67 0.0 3.0 0.00 0.00 0.00 82 1016.9
20191211050916 79 67 0.0 3.0 0.00 0.00 0.00 82 1016.9
20191211050715 79 104 0.0 1.0 0.00 0.00 0.00 82 1016.9
20191211050616 79 104 0.0 1.0 0.00 0.00 0.00 82 1017.0
20191211050315 79 104 0.0 3.0 0.00 0.00 0.00 81 1016.9
20191211050216 79 104 0.0 3.0 0.00 0.00 0.00 82 1016.9
20191211050115 79 104 0.0 3.0 0.00 0.00 0.00 82 1016.9
20191211050016 79 104 0.0 3.0 0.00 0.00 0.00 81 1016.9
20191211045915 79 71 1.0 3.0 0.00 0.00 0.00 82 1016.9
20191211045516 79 115 0.0 4.0 0.00 0.00 0.01 81 1016.9
20191211045415 79 115 0.0 4.0 0.00 0.00 0.01 81 1016.9
20191211045216 79 115 0.0 5.0 0.00 0.00 0.01 81 1016.9
20191211045115 79 135 2.0 5.0 0.00 0.00 0.01 81 1017.0
20191211045016 80 99 0.0 5.0 0.00 0.00 0.01 81 1016.9
20191211044915 79 99 0.0 5.0 0.00 0.00 0.01 81 1017.0
20191211044516 79 106 3.0 5.0 0.00 0.00 0.01 82 1017.0
20191211044115 79 67 1.0 5.0 0.00 0.00 0.01 81 1017.0
20191211044016 79 56 1.0 5.0 0.00 0.00 0.01 81 1016.9
20191211043915 79 130 3.0 5.0 0.00 0.00 0.01 81 1017.0
20191211043816 79 105 3.0 5.0 0.00 0.00 0.01 81 1017.0
20191211043716 79 78 3.0 5.0 0.00 0.00 0.01 81 1017.0
20191211043515 79 115 1.0 5.0 0.00 0.00 0.01 81 1017.0
20191211043416 79 85 0.0 5.0 0.00 0.00 0.01 81 1016.9
20191211043316 79 106 0.0 8.0 0.00 0.00 0.01 81 1016.9
20191211043216 79 106 0.0 8.0 0.00 0.00 0.01 81 1016.9
20191211043117 79 66 3.0 8.0 0.00 0.00 0.01 81 1016.9
20191211043016 79 57 0.0 8.0 0.00 0.00 0.01 81 1016.9
20191211042715 79 104 2.0 6.0 0.00 0.00 0.01 81 1016.9
20191211042216 79 102 0.0 5.0 0.00 0.00 0.01 81 1017.0
20191211042115 79 92 3.0 5.0 0.00 0.00 0.01 81 1017.0
20191211041916 80 91 1.0 5.0 0.00 0.00 0.01 81 1017.0
20191211041815 79 71 4.0 4.0 0.00 0.00 0.01 81 1017.0
20191211041716 79 82 2.0 4.0 0.00 0.00 0.01 81 1017.0
20191211041615 79 95 0.0 4.0 0.00 0.00 0.01 81 1017.0
20191211041316 79 125 0.0 2.0 0.00 0.00 0.01 81 1017.0
20191211041215 79 125 0.0 2.0 0.00 0.00 0.01 81 1017.0
20191211040816 79 61 0.0 6.0 0.00 0.00 0.01 81 1017.0
20191211040715 79 61 0.0 6.0 0.00 0.00 0.01 81 1017.0
20191211040616 79 61 0.0 6.0 0.00 0.00 0.01 81 1017.0
20191211040515 79 61 0.0 6.0 0.00 0.00 0.01 81 1017.0
20191211040416 79 70 2.0 6.0 0.00 0.00 0.01 81 1017.0
20191211040315 79 67 0.0 7.0 0.00 0.00 0.01 81 1017.0
20191211040216 79 126 1.0 7.0 0.00 0.00 0.01 81 1017.0
20191211040115 79 75 1.0 7.0 0.00 0.00 0.01 81 1017.0
20191211040016 79 109 1.0 7.0 0.00 0.00 0.01 81 1017.0
20191211035915 79 64 1.0 7.0 0.00 0.00 0.01 81 1017.0
20191211035816 79 84 0.0 4.0 0.00 0.00 0.01 81 1017.0
20191211035715 79 82 4.0 4.0 0.00 0.00 0.01 81 1017.1
20191211035316 79 95 2.0 5.0 0.00 0.00 0.01 81 1017.1
20191211035215 79 147 0.0 5.0 0.00 0.00 0.01 81 1017.1
20191211035116 79 78 3.0 5.0 0.00 0.00 0.01 81 1017.1
20191211035015 79 74 0.0 5.0 0.00 0.00 0.01 81 1017.0
20191211034916 79 74 0.0 5.0 0.00 0.00 0.01 81 1017.1
20191211034515 80 120 1.0 7.0 0.00 0.00 0.01 81 1017.1
20191211034416 79 78 2.0 7.0 0.00 0.00 0.01 81 1017.1
20191211034315 79 102 2.0 7.0 0.00 0.00 0.01 81 1017.1
20191211034116 79 84 3.0 7.0 0.00 0.00 0.01 81 1017.1
20191211033915 80 68 0.0 7.0 0.00 0.00 0.01 80 1017.1
20191211033816 79 68 0.0 5.0 0.00 0.00 0.01 80 1017.1
20191211033715 79 115 3.0 5.0 0.00 0.00 0.01 80 1017.1
20191211033616 80 81 2.0 5.0 0.00 0.00 0.01 80 1017.1
20191211033515 79 87 1.0 5.0 0.00 0.00 0.01 80 1017.1
20191211033316 79 109 0.0 7.0 0.00 0.00 0.01 80 1017.1
20191211033215 80 151 2.0 7.0 0.00 0.00 0.01 80 1017.1
20191211033016 79 66 2.0 7.0 0.00 0.00 0.01 80 1017.1
20191211032815 79 90 4.0 6.0 0.00 0.00 0.01 80 1017.1
20191211032716 79 74 2.0 6.0 0.00 0.00 0.01 80 1017.1
20191211032615 79 80 3.0 6.0 0.00 0.00 0.01 80 1017.1
20191211032516 79 97 3.0 6.0 0.00 0.00 0.01 80 1017.1
20191211032415 79 92 4.0 6.0 0.00 0.00 0.01 80 1017.1
20191211032316 79 90 4.0 7.0 0.00 0.00 0.01 80 1017.1
20191211032216 79 113 6.0 7.0 0.00 0.00 0.01 80 1017.1
20191211032116 79 88 2.0 7.0 0.00 0.00 0.01 80 1017.1
20191211031917 79 153 0.0 7.0 0.00 0.00 0.01 80 1017.1
20191211031817 79 153 1.0 7.0 0.00 0.00 0.01 80 1017.1
20191211031616 79 78 3.0 7.0 0.00 0.00 0.01 80 1017.1
20191211031516 79 120 4.0 7.0 0.00 0.00 0.01 80 1017.1
20191211030916 79 101 1.0 6.0 0.00 0.00 0.01 80 1017.1
20191211030815 79 91 0.0 7.0 0.00 0.00 0.01 80 1017.1
20191211030716 79 99 2.0 7.0 0.00 0.00 0.01 80 1017.1
20191211030615 79 99 3.0 7.0 0.00 0.00 0.01 80 1017.1
20191211030416 79 67 3.0 7.0 0.00 0.00 0.01 80 1017.1
20191211030215 80 104 7.0 7.0 0.00 0.00 0.01 80 1017.1
20191211030116 79 95 2.0 7.0 0.00 0.00 0.01 80 1017.1
20191211025815 79 112 3.0 3.0 0.00 0.00 0.01 80 1017.1
20191211025616 79 102 0.0 3.0 0.00 0.00 0.01 80 1017.1
20191211025515 80 102 0.0 3.0 0.00 0.00 0.01 80 1017.1
20191211025316 79 102 0.0 5.0 0.00 0.00 0.01 80 1017.1
20191211025215 79 102 0.0 5.0 0.00 0.00 0.01 80 1017.1
20191211025016 79 102 1.0 5.0 0.00 0.00 0.01 80 1017.0
20191211024916 79 78 2.0 5.0 0.00 0.00 0.01 80 1017.0
20191211024716 80 99 3.0 0.0 0.00 0.00 0.01 79 1017.1
20191211024616 80 66 0.0 0.0 0.00 0.00 0.01 79 1017.0
20191211024415 79 123 0.0 0.0 0.00 0.00 0.01 79 1017.0
20191211024116 79 123 0.0 0.0 0.00 0.00 0.01 79 1017.0
20191211023915 79 123 0.0 0.0 0.00 0.00 0.01 79 1017.0
20191211023816 79 123 0.0 5.0 0.00 0.00 0.01 79 1017.0
20191211023716 79 123 0.0 5.0 0.00 0.00 0.01 79 1017.0
20191211023416 80 123 0.0 5.0 0.00 0.00 0.01 79 1016.9
20191211023316 79 123 0.0 7.0 0.00 0.00 0.01 79 1016.9
20191211023015 79 120 0.0 7.0 0.00 0.00 0.01 79 1016.9
20191211022816 79 67 2.0 9.0 0.00 0.00 0.01 79 1016.9
20191211022515 79 109 1.0 9.0 0.00 0.00 0.01 79 1016.9
20191211022416 79 75 0.0 9.0 0.00 0.00 0.01 79 1016.8
20191211022315 79 75 0.0 7.0 0.00 0.00 0.01 79 1016.9
20191211022216 79 75 0.0 7.0 0.00 0.00 0.01 79 1016.8
20191211022015 79 74 2.0 7.0 0.00 0.00 0.01 79 1016.8
20191211021616 79 116 1.0 7.0 0.00 0.00 0.01 79 1016.8
20191211021415 79 66 4.0 7.0 0.00 0.00 0.01 79 1016.8
20191211021116 79 108 0.0 0.0 0.00 0.00 0.01 79 1016.8
20191211021015 79 108 0.0 0.0 0.00 0.00 0.01 79 1016.8
20191211020916 79 108 0.0 0.0 0.00 0.00 0.01 79 1016.8
20191211020815 79 108 0.0 7.0 0.00 0.00 0.01 79 1016.7
20191211020416 79 108 0.0 7.0 0.00 0.00 0.01 80 1016.7
20191211020316 79 108 2.0 7.0 0.00 0.00 0.01 80 1016.7
20191211020015 79 109 3.0 7.0 0.00 0.00 0.01 80 1016.6
20191211015915 79 126 5.0 7.0 0.00 0.00 0.01 80 1016.6
20191211015716 79 150 2.0 9.0 0.00 0.00 0.01 80 1016.6
20191211015516 79 85 3.0 9.0 0.00 0.00 0.01 80 1016.6
20191211015415 79 85 0.0 9.0 0.00 0.00 0.01 80 1016.5
20191211015216 79 98 3.0 7.0 0.00 0.00 0.01 80 1016.6
20191211014916 79 81 2.0 7.0 0.00 0.00 0.01 80 1016.5
20191211014716 79 105 0.0 0.0 0.00 0.00 0.01 80 1016.5
20191211014615 79 105 0.0 0.0 0.00 0.00 0.01 81 1016.6
20191211014416 79 105 0.0 0.0 0.00 0.00 0.01 80 1016.5
20191211014315 79 105 0.0 0.0 0.00 0.00 0.01 80 1016.5
20191211014215 79 105 0.0 0.0 0.00 0.00 0.01 81 1016.5
20191211014116 79 105 0.0 0.0 0.00 0.00 0.01 81 1016.5
20191211013716 79 105 0.0 7.0 0.00 0.00 0.01 80 1016.4
20191211013616 79 105 0.0 7.0 0.00 0.00 0.01 81 1016.4
20191211013416 79 105 0.0 7.0 0.00 0.00 0.01 80 1016.4
20191211013316 79 105 0.0 6.0 0.00 0.00 0.01 80 1016.4
20191211012915 79 105 6.0 6.0 0.00 0.00 0.01 80 1016.3
20191211012816 79 82 3.0 1.0 0.00 0.00 0.01 80 1016.3
20191211012715 79 95 0.0 1.0 0.00 0.00 0.01 80 1016.3
20191211012616 79 95 0.0 1.0 0.00 0.00 0.01 80 1016.3
20191211012515 79 95 0.0 1.0 0.00 0.00 0.01 80 1016.3
20191211012418 79 84 0.0 1.0 0.00 0.00 0.01 80 1016.3
20191211012316 79 84 0.0 0.0 0.00 0.00 0.01 80 1016.3
20191211012216 79 84 0.0 0.0 0.00 0.00 0.01 80 1016.2
20191211012116 79 84 0.0 0.0 0.00 0.00 0.01 80 1016.2
20191211012016 79 84 0.0 0.0 0.00 0.00 0.01 80 1016.2
20191211011815 79 84 0.0 6.0 0.00 0.00 0.01 80 1016.2
20191211011516 79 84 0.0 6.0 0.00 0.00 0.01 80 1016.2
20191211011415 79 84 0.0 6.0 0.00 0.00 0.01 80 1016.2
20191211011216 79 84 0.0 7.0 0.00 0.00 0.01 80 1016.2
20191211010816 79 87 3.0 6.0 0.00 0.00 0.01 80 1016.2
20191211010716 79 92 4.0 6.0 0.00 0.00 0.01 80 1016.2
20191211010616 79 109 4.0 6.0 0.00 0.00 0.01 80 1016.2
20191211010416 79 95 2.0 6.0 0.00 0.00 0.01 80 1016.2
20191211010316 79 104 3.0 0.0 0.00 0.00 0.01 80 1016.2
20191211010217 79 97 0.0 0.0 0.00 0.00 0.01 80 1016.2
20191211005816 79 119 0.0 0.0 0.00 0.00 0.01 80 1016.1
20191211005715 79 119 0.0 0.0 0.00 0.00 0.01 80 1016.1
20191211005616 79 119 0.0 0.0 0.00 0.00 0.01 80 1016.2
20191211005515 79 119 0.0 0.0 0.00 0.00 0.01 80 1016.1
20191211005316 79 119 0.0 0.0 0.00 0.00 0.01 80 1016.1
20191211005216 79 119 0.0 0.0 0.00 0.00 0.01 80 1016.1
20191211005115 80 119 0.0 0.0 0.00 0.00 0.01 80 1016.1
20191211005016 80 119 0.0 0.0 0.00 0.00 0.01 80 1016.0
20191211004815 79 119 0.0 0.0 0.00 0.00 0.01 80 1016.0
20191211004716 79 119 0.0 0.0 0.00 0.00 0.01 80 1016.0
20191211004516 79 119 0.0 0.0 0.00 0.00 0.01 80 1016.0
20191211004415 79 119 0.0 0.0 0.00 0.00 0.01 80 1016.0
20191211003716 79 119 0.0 0.0 0.00 0.00 0.01 80 1016.0
20191211003616 79 119 0.0 0.0 0.00 0.00 0.01 80 1015.9
20191211003515 79 119 0.0 0.0 0.00 0.00 0.01 79 1015.9
20191211003316 79 119 0.0 0.0 0.00 0.00 0.01 79 1015.9
20191211003215 80 119 0.0 0.0 0.00 0.00 0.01 79 1015.9
20191211003116 80 119 0.0 0.0 0.00 0.00 0.01 79 1015.9
20191211003016 80 119 0.0 0.0 0.00 0.00 0.01 79 1015.9
20191211002916 80 119 0.0 0.0 0.00 0.00 0.01 79 1015.9
20191211002415 80 119 0.0 0.0 0.00 0.00 0.01 79 1015.8
20191211002316 79 119 0.0 5.0 0.00 0.00 0.01 79 1015.8
20191211002216 80 119 0.0 5.0 0.00 0.00 0.01 79 1015.8
20191211001816 79 119 0.0 8.0 0.00 0.00 0.01 79 1015.9
20191211001716 80 92 2.0 8.0 0.00 0.00 0.01 79 1015.8
20191211001616 80 68 3.0 8.0 0.00 0.00 0.01 79 1015.8
20191211001516 79 95 0.0 8.0 0.00 0.00 0.01 79 1015.9
20191211001316 79 123 3.0 7.0 0.00 0.00 0.01 79 1015.8
20191211001215 80 81 4.0 7.0 0.00 0.00 0.01 79 1015.8
20191211001116 80 97 5.0 7.0 0.00 0.00 0.01 79 1015.8
20191211000816 79 82 0.0 0.0 0.00 0.00 0.01 79 1015.8
20191211000716 80 82 0.0 0.0 0.00 0.00 0.01 79 1015.9
20191211000515 80 91 5.0 0.0 0.00 0.00 0.01 79 1015.8
20191211000215 80 109 0.0 5.0 0.00 0.00 0.01 79 1015.8
20191211000116 80 109 0.0 5.0 0.00 0.00 0.01 79 1015.7
20191211000015 79 109 0.0 5.0 0.00 0.00 0.01 79 1015.7
20191210235916 80 109 0.0 5.0 0.00 0.00 0.01 79 1015.7
20191210235715 80 77 4.0 7.0 0.00 0.00 0.01 78 1015.7
20191210235416 80 112 0.0 7.0 0.00 0.00 0.01 78 1015.7
20191210235316 80 112 0.0 0.0 0.00 0.00 0.01 78 1015.7
20191210235215 80 112 0.0 0.0 0.00 0.00 0.01 78 1015.7
20191210234916 80 60 3.0 0.0 0.00 0.00 0.01 78 1015.6
20191210234815 79 78 0.0 5.0 0.00 0.00 0.01 78 1015.7
20191210234716 79 78 0.0 5.0 0.00 0.00 0.01 78 1015.7
20191210234616 80 78 0.0 5.0 0.00 0.00 0.01 78 1015.6
20191210234416 80 78 0.0 5.0 0.00 0.00 0.01 78 1015.6
20191210234315 80 78 0.0 5.0 0.00 0.00 0.01 78 1015.6
20191210234116 80 78 0.0 5.0 0.00 0.00 0.01 78 1015.6
20191210234016 79 122 1.0 5.0 0.00 0.00 0.01 78 1015.6
20191210233916 80 82 5.0 5.0 0.00 0.00 0.01 78 1015.6
20191210233815 79 111 2.0 0.0 0.00 0.00 0.01 78 1015.6
20191210233716 80 60 0.0 0.0 0.00 0.00 0.01 78 1015.6
20191210233315 79 60 0.0 0.0 0.00 0.00 0.01 78 1015.6
20191210233116 80 60 0.0 0.0 0.00 0.00 0.01 78 1015.5
20191210233015 80 60 0.0 0.0 0.00 0.00 0.01 78 1015.5
20191210232916 80 60 0.0 0.0 0.00 0.00 0.01 78 1015.5
20191210232816 80 60 0.0 7.0 0.00 0.00 0.01 78 1015.5
20191210232715 80 60 0.0 7.0 0.00 0.00 0.01 78 1015.4
20191210232516 80 60 0.0 7.0 0.00 0.00 0.01 78 1015.4
20191210232315 80 60 0.0 6.0 0.00 0.00 0.01 78 1015.5
20191210232216 80 60 0.0 6.0 0.00 0.00 0.01 78 1015.4
20191210232115 80 60 0.0 6.0 0.00 0.00 0.01 78 1015.4
20191210232016 80 60 0.0 6.0 0.00 0.00 0.01 78 1015.4
20191210231915 80 95 6.0 6.0 0.00 0.00 0.01 78 1015.4
20191210231316 80 102 1.0 8.0 0.00 0.00 0.01 78 1015.3
20191210231216 80 105 1.0 8.0 0.00 0.00 0.01 78 1015.4
20191210230716 80 84 4.0 9.0 0.00 0.00 0.01 78 1015.3
20191210230615 80 74 4.0 9.0 0.00 0.00 0.01 78 1015.2
20191210230416 80 125 3.0 9.0 0.00 0.00 0.01 78 1015.3
20191210230315 80 101 8.0 8.0 0.00 0.00 0.01 78 1015.2
20191210230216 80 109 4.0 8.0 0.00 0.00 0.01 78 1015.2
20191210230115 80 102 3.0 8.0 0.00 0.00 0.01 78 1015.2
20191210230016 80 109 5.0 8.0 0.00 0.00 0.01 78 1015.2
20191210225916 80 95 2.0 8.0 0.00 0.00 0.01 78 1015.2
20191210225816 80 99 2.0 8.0 0.00 0.00 0.01 78 1015.2
20191210225715 80 118 5.0 8.0 0.00 0.00 0.01 78 1015.2
20191210225616 80 109 1.0 8.0 0.00 0.00 0.01 78 1015.2
20191210225515 80 98 3.0 8.0 0.00 0.00 0.01 78 1015.2
20191210225416 80 116 5.0 8.0 0.00 0.00 0.01 78 1015.2
20191210225315 80 85 2.0 9.0 0.00 0.00 0.01 78 1015.2
20191210224916 80 92 4.0 9.0 0.00 0.00 0.01 78 1015.1
20191210224816 80 95 7.0 0.0 0.00 0.00 0.01 78 1015.1
20191210224716 80 85 0.0 0.0 0.00 0.00 0.01 78 1015.1
20191210224615 80 85 0.0 0.0 0.00 0.00 0.01 78 1015.0
20191210224516 80 85 0.0 0.0 0.00 0.00 0.01 78 1015.0
20191210224415 80 85 0.0 0.0 0.00 0.00 0.01 78 1015.1
20191210224316 80 85 0.0 0.0 0.00 0.00 0.01 78 1015.1
20191210224215 80 85 0.0 0.0 0.00 0.00 0.01 78 1015.1
20191210224016 80 85 0.0 0.0 0.00 0.00 0.01 78 1015.1
20191210223815 80 85 0.0 3.0 0.00 0.00 0.01 78 1015.1
20191210223716 80 85 0.0 3.0 0.00 0.00 0.01 78 1015.0
20191210223615 80 85 0.0 3.0 0.00 0.00 0.01 77 1015.0
20191210223516 80 85 0.0 3.0 0.00 0.00 0.01 77 1015.1
20191210223215 80 85 0.0 8.0 0.00 0.00 0.01 77 1015.0
20191210223116 80 85 0.0 8.0 0.00 0.00 0.01 77 1015.0
20191210223015 80 85 0.0 8.0 0.00 0.00 0.01 77 1015.0
20191210222916 80 85 1.0 8.0 0.00 0.00 0.01 77 1015.0
20191210222815 80 84 1.0 7.0 0.00 0.00 0.01 77 1015.1
20191210222616 80 119 2.0 7.0 0.00 0.00 0.01 77 1015.0
20191210222515 80 82 4.0 7.0 0.00 0.00 0.01 77 1015.0
20191210222416 80 109 4.0 7.0 0.00 0.00 0.01 77 1015.0
20191210222216 80 90 3.0 6.0 0.00 0.00 0.01 76 1015.0
20191210222116 80 88 5.0 6.0 0.00 0.00 0.01 76 1015.0
20191210222016 80 127 1.0 6.0 0.00 0.00 0.01 76 1015.0
20191210221915 80 57 4.0 6.0 0.00 0.00 0.01 76 1014.9
20191210221816 80 88 5.0 8.0 0.00 0.00 0.01 76 1015.0
20191210221715 80 164 3.0 8.0 0.00 0.00 0.01 76 1015.0
20191210221616 80 118 1.0 8.0 0.00 0.00 0.01 76 1015.0
20191210221515 80 74 4.0 8.0 0.00 0.00 0.01 76 1014.9
20191210221416 80 163 2.0 8.0 0.00 0.00 0.01 76 1014.9
20191210221315 80 88 5.0 8.0 0.00 0.00 0.01 76 1014.9
20191210221216 80 116 4.0 8.0 0.00 0.00 0.01 76 1014.9
20191210221016 80 144 2.0 8.0 0.00 0.00 0.01 76 1015.0
20191210220816 80 94 5.0 9.0 0.00 0.00 0.01 76 1014.9
20191210220715 80 143 4.0 9.0 0.00 0.00 0.01 76 1014.9
20191210220616 80 112 1.0 9.0 0.00 0.00 0.01 76 1014.9
20191210220515 80 80 4.0 9.0 0.00 0.00 0.01 76 1014.9
20191210220416 80 97 4.0 9.0 0.00 0.00 0.01 76 1014.9
20191210220115 80 102 3.0 8.0 0.00 0.00 0.01 76 1014.9
20191210220016 80 101 6.0 8.0 0.00 0.00 0.01 76 1014.9
20191210215915 80 87 6.0 8.0 0.00 0.00 0.01 76 1014.9
20191210215616 81 122 6.0 8.0 0.00 0.00 0.01 76 1014.9
20191210215515 80 102 4.0 8.0 0.00 0.00 0.01 76 1014.9
20191210215316 81 82 3.0 8.0 0.00 0.00 0.01 75 1014.9
20191210215215 81 87 3.0 8.0 0.00 0.00 0.01 75 1014.8
20191210214916 81 105 4.0 8.0 0.00 0.00 0.01 75 1014.8
20191210214816 81 106 3.0 10.0 0.00 0.00 0.01 74 1014.8
20191210214715 81 82 5.0 10.0 0.00 0.00 0.01 74 1014.7
20191210214516 81 82 3.0 10.0 0.00 0.00 0.01 74 1014.7
20191210214315 81 115 3.0 10.0 0.00 0.00 0.01 74 1014.8
20191210214116 81 118 4.0 10.0 0.00 0.00 0.01 74 1014.8
20191210213916 81 73 2.0 10.0 0.00 0.00 0.01 74 1014.7
20191210213716 81 88 5.0 10.0 0.00 0.00 0.01 74 1014.7
20191210213616 81 105 4.0 10.0 0.00 0.00 0.01 74 1014.7
20191210213516 81 163 2.0 10.0 0.00 0.00 0.01 74 1014.7
20191210213416 81 119 4.0 10.0 0.00 0.00 0.01 74 1014.7
20191210213315 81 80 2.0 9.0 0.00 0.00 0.01 74 1014.7
20191210213115 81 144 2.0 9.0 0.00 0.00 0.01 74 1014.7
20191210213016 81 196 1.0 9.0 0.00 0.00 0.01 74 1014.7
20191210212915 81 109 3.0 9.0 0.00 0.00 0.01 74 1014.7
20191210212816 81 67 1.0 8.0 0.00 0.00 0.01 74 1014.7
20191210212715 81 184 2.0 8.0 0.00 0.00 0.01 74 1014.7
20191210212516 81 80 3.0 8.0 0.00 0.00 0.01 73 1014.7
20191210212415 81 56 5.0 8.0 0.00 0.00 0.01 73 1014.7
20191210212316 81 97 7.0 9.0 0.00 0.00 0.01 73 1014.7
20191210212115 81 91 1.0 9.0 0.00 0.00 0.01 73 1014.7
20191210212016 81 78 4.0 9.0 0.00 0.00 0.01 73 1014.7
20191210211915 81 80 2.0 9.0 0.00 0.00 0.01 73 1014.7
20191210211816 81 71 9.0 9.0 0.00 0.00 0.01 73 1014.7
20191210211715 81 104 3.0 9.0 0.00 0.00 0.01 73 1014.7
20191210211516 81 77 6.0 9.0 0.00 0.00 0.01 73 1014.7
20191210211216 81 108 2.0 10.0 0.00 0.00 0.01 73 1014.7
20191210211116 81 45 0.0 10.0 0.00 0.00 0.01 73 1014.7
20191210210915 81 105 4.0 10.0 0.00 0.00 0.01 73 1014.7
20191210210816 81 102 4.0 11.0 0.00 0.00 0.01 73 1014.7
20191210210615 81 144 4.0 11.0 0.00 0.00 0.01 73 1014.7
20191210210416 81 111 4.0 11.0 0.00 0.00 0.01 73 1014.7
20191210210315 81 71 5.0 8.0 0.00 0.00 0.01 73 1014.7
20191210210216 81 115 8.0 8.0 0.00 0.00 0.01 73 1014.6
20191210210015 81 118 1.0 8.0 0.00 0.00 0.01 73 1014.6
20191210205716 81 101 2.0 7.0 0.00 0.00 0.01 72 1014.7
20191210205615 81 123 1.0 7.0 0.00 0.00 0.01 72 1014.7
20191210205516 81 127 0.0 7.0 0.00 0.00 0.01 72 1014.6
20191210205415 81 77 0.0 7.0 0.00 0.00 0.01 72 1014.6
20191210205316 82 133 1.0 8.0 0.00 0.00 0.01 72 1014.6
20191210205115 81 61 1.0 8.0 0.00 0.00 0.01 72 1014.6
20191210204916 81 90 4.0 8.0 0.00 0.00 0.01 72 1014.6
20191210204816 81 84 4.0 9.0 0.00 0.00 0.01 72 1014.6
20191210204717 81 92 0.0 9.0 0.00 0.00 0.01 72 1014.6
20191210204615 82 116 5.0 9.0 0.00 0.00 0.01 72 1014.6
20191210204316 81 87 5.0 9.0 0.00 0.00 0.01 72 1014.6
20191210204216 81 63 1.0 9.0 0.00 0.00 0.01 72 1014.6
20191210204116 81 82 3.0 9.0 0.00 0.00 0.01 73 1014.6
20191210204015 82 87 3.0 9.0 0.00 0.00 0.01 73 1014.6
20191210203916 81 92 4.0 9.0 0.00 0.00 0.01 73 1014.7
20191210203815 81 116 5.0 12.0 0.00 0.00 0.01 73 1014.6
20191210203216 82 106 5.0 8.0 0.00 0.00 0.01 72 1014.6
20191210203115 82 78 7.0 8.0 0.00 0.00 0.01 72 1014.6
20191210203016 82 140 3.0 8.0 0.00 0.00 0.01 72 1014.6
20191210202915 82 106 4.0 8.0 0.00 0.00 0.01 72 1014.6
20191210202816 82 113 1.0 11.0 0.00 0.00 0.01 72 1014.6
20191210202715 82 91 1.0 11.0 0.00 0.00 0.01 72 1014.6
20191210202516 81 87 0.0 11.0 0.00 0.00 0.01 72 1014.6
20191210202015 82 122 8.0 10.0 0.00 0.00 0.01 72 1014.6
20191210201916 81 78 7.0 10.0 0.00 0.00 0.01 72 1014.6
20191210201715 82 133 3.0 10.0 0.00 0.00 0.01 72 1014.6
20191210201616 82 105 9.0 10.0 0.00 0.00 0.01 72 1014.6
20191210201515 82 129 1.0 10.0 0.00 0.00 0.01 72 1014.7
20191210201416 82 94 5.0 10.0 0.00 0.00 0.01 72 1014.6
20191210201315 82 120 3.0 7.0 0.00 0.00 0.01 72 1014.6
20191210201216 82 54 3.0 7.0 0.00 0.00 0.01 72 1014.7
20191210201015 82 99 2.0 7.0 0.00 0.00 0.01 71 1014.7
20191210200916 82 87 5.0 7.0 0.00 0.00 0.01 71 1014.7
20191210200715 82 102 6.0 9.0 0.00 0.00 0.01 71 1014.6
20191210200616 82 105 1.0 9.0 0.00 0.00 0.01 71 1014.6
20191210200515 82 75 2.0 9.0 0.00 0.00 0.01 71 1014.6
20191210200416 82 105 3.0 9.0 0.00 0.00 0.01 71 1014.7
20191210200115 82 122 8.0 10.0 0.00 0.00 0.01 71 1014.7
20191210200016 82 106 7.0 10.0 0.00 0.00 0.01 71 1014.7
20191210195916 82 125 4.0 10.0 0.00 0.00 0.01 71 1014.7
20191210195615 82 118 6.0 9.0 0.00 0.00 0.01 70 1014.7
20191210195516 82 119 6.0 9.0 0.00 0.00 0.01 70 1014.7
20191210195316 82 108 7.0 7.0 0.00 0.00 0.01 71 1014.7
20191210195216 82 80 2.0 7.0 0.00 0.00 0.01 71 1014.7
20191210195115 82 139 3.0 7.0 0.00 0.00 0.01 71 1014.7
20191210195016 82 102 3.0 7.0 0.00 0.00 0.01 71 1014.7
20191210194915 82 95 7.0 7.0 0.00 0.00 0.01 71 1014.8
20191210194716 82 135 0.0 10.0 0.00 0.00 0.01 71 1014.7
20191210194515 82 73 1.0 10.0 0.00 0.00 0.01 71 1014.7
20191210194416 82 73 4.0 10.0 0.00 0.00 0.01 71 1014.8
20191210194215 82 88 3.0 8.0 0.00 0.00 0.01 71 1014.8
20191210194116 82 80 3.0 8.0 0.00 0.00 0.01 71 1014.8
20191210194015 82 81 4.0 8.0 0.00 0.00 0.01 71 1014.8
20191210193616 82 64 2.0 10.0 0.00 0.00 0.01 71 1014.8
20191210193515 82 73 6.0 10.0 0.00 0.00 0.01 71 1014.8
20191210193416 82 95 4.0 10.0 0.00 0.00 0.01 71 1014.8
20191210193315 82 53 3.0 11.0 0.00 0.00 0.01 70 1014.8
20191210193216 82 102 4.0 11.0 0.00 0.00 0.01 71 1014.9
20191210193015 82 136 3.0 11.0 0.00 0.00 0.01 71 1014.9
20191210192916 82 88 8.0 11.0 0.00 0.00 0.01 71 1014.8
20191210192815 82 92 3.0 10.0 0.00 0.00 0.01 71 1014.8
20191210192716 82 77 4.0 10.0 0.00 0.00 0.01 71 1014.9
20191210192615 82 84 7.0 10.0 0.00 0.00 0.01 71 1014.9
20191210192516 82 99 4.0 10.0 0.00 0.00 0.01 71 1014.9
20191210192315 82 99 5.0 11.0 0.00 0.00 0.01 71 1014.9
20191210192016 82 120 6.0 11.0 0.00 0.00 0.01 71 1014.8
20191210191715 82 60 2.0 12.0 0.00 0.00 0.01 71 1014.8
20191210191616 82 97 5.0 12.0 0.00 0.00 0.01 71 1014.9
20191210191515 82 108 5.0 12.0 0.00 0.00 0.01 71 1014.9
20191210191416 82 105 0.0 12.0 0.00 0.00 0.01 71 1014.9
20191210191315 82 99 5.0 10.0 0.00 0.00 0.01 71 1014.8
20191210191116 82 202 4.0 10.0 0.00 0.00 0.01 70 1014.8
20191210191016 82 82 6.0 10.0 0.00 0.00 0.01 70 1014.9
20191210190915 82 82 2.0 10.0 0.00 0.00 0.01 70 1014.9
20191210190516 82 82 4.0 10.0 0.00 0.00 0.01 71 1014.9
20191210190415 82 102 5.0 10.0 0.00 0.00 0.01 70 1014.9
20191210190316 82 111 1.0 9.0 0.00 0.00 0.01 70 1014.9
20191210190215 82 115 7.0 9.0 0.00 0.00 0.01 71 1014.8
20191210190116 82 127 2.0 9.0 0.00 0.00 0.01 72 1014.9
20191210190015 82 53 3.0 9.0 0.00 0.00 0.01 71 1014.9
20191210185916 82 85 7.0 9.0 0.00 0.00 0.01 71 1014.9
20191210185815 82 97 9.0 11.0 0.00 0.00 0.01 71 1014.9
20191210185516 82 92 5.0 11.0 0.00 0.00 0.01 72 1014.9
20191210185315 82 102 4.0 9.0 0.00 0.00 0.01 71 1014.9
20191210185216 82 105 7.0 9.0 0.00 0.00 0.01 71 1014.9
20191210185115 82 95 4.0 9.0 0.00 0.00 0.01 71 1014.9
20191210185016 82 52 6.0 9.0 0.00 0.00 0.01 71 1015.0
20191210184915 82 78 7.0 9.0 0.00 0.00 0.01 71 1014.9
20191210184816 82 101 3.0 11.0 0.00 0.00 0.01 71 1015.0
20191210184615 82 99 6.0 11.0 0.00 0.00 0.01 71 1015.0
20191210184516 82 112 8.0 11.0 0.00 0.00 0.01 70 1014.9
20191210184415 82 102 3.0 11.0 0.00 0.00 0.01 70 1015.0
20191210184316 82 130 10.0 10.0 0.00 0.00 0.01 70 1015.0
20191210184115 82 87 4.0 10.0 0.00 0.00 0.01 70 1015.0
20191210184016 82 126 1.0 10.0 0.00 0.00 0.01 70 1015.0
20191210183915 82 80 4.0 10.0 0.00 0.00 0.01 70 1015.0
20191210183816 82 77 3.0 10.0 0.00 0.00 0.01 70 1015.0
20191210183515 83 101 3.0 10.0 0.00 0.00 0.01 69 1015.1
20191210183416 83 136 1.0 10.0 0.00 0.00 0.01 70 1015.1
20191210183315 82 87 4.0 7.0 0.00 0.00 0.01 69 1015.1
20191210183216 83 85 6.0 7.0 0.00 0.00 0.01 69 1015.1
20191210182916 83 68 4.0 7.0 0.00 0.00 0.01 69 1015.2
20191210182716 83 74 2.0 6.0 0.00 0.00 0.01 69 1015.2
20191210182515 83 81 3.0 6.0 0.00 0.00 0.01 70 1015.2
20191210182316 82 82 0.0 7.0 0.00 0.00 0.01 70 1015.2
20191210182115 83 45 0.0 7.0 0.00 0.00 0.01 69 1015.3
20191210182016 83 43 0.0 7.0 0.00 0.00 0.01 70 1015.2
20191210181915 82 94 2.0 7.0 0.00 0.00 0.01 69 1015.3
20191210181716 83 56 2.0 11.0 0.00 0.00 0.01 70 1015.3
20191210181615 82 125 3.0 11.0 0.00 0.00 0.01 70 1015.3
20191210181516 83 108 0.0 11.0 0.00 0.00 0.01 70 1015.4
20191210181316 82 87 4.0 9.0 0.00 0.00 0.01 70 1015.3
20191210180916 82 5 1.0 9.0 0.00 0.00 0.01 69 1015.4
20191210180815 83 104 6.0 8.0 0.00 0.00 0.01 69 1015.3
20191210180416 83 212 1.0 8.0 0.00 0.00 0.01 69 1015.4
20191210180315 83 112 3.0 6.0 0.00 0.00 0.01 69 1015.4
20191210180216 83 68 1.0 6.0 0.00 0.00 0.01 69 1015.4
20191210180117 83 104 4.0 6.0 0.00 0.00 0.01 69 1015.4
20191210180016 83 109 1.0 6.0 0.00 0.00 0.01 69 1015.5
20191210175916 83 130 2.0 6.0 0.00 0.00 0.01 69 1015.5
20191210175616 83 74 2.0 7.0 0.00 0.00 0.01 69 1015.5
20191210175516 83 35 1.0 7.0 0.00 0.00 0.01 69 1015.5
20191210175415 83 101 3.0 7.0 0.00 0.00 0.01 69 1015.5
20191210175316 83 70 3.0 7.0 0.00 0.00 0.01 69 1015.5
20191210175215 83 92 4.0 7.0 0.00 0.00 0.01 69 1015.6
20191210175016 83 277 0.0 7.0 0.00 0.00 0.01 69 1015.6
20191210174915 83 85 7.0 7.0 0.00 0.00 0.01 69 1015.6
20191210174816 83 106 3.0 6.0 0.00 0.00 0.01 69 1015.6
20191210174715 83 202 0.0 6.0 0.00 0.00 0.01 69 1015.7
20191210174616 83 202 0.0 6.0 0.00 0.00 0.01 69 1015.7
20191210174515 83 202 0.0 6.0 0.00 0.00 0.01 69 1015.7
20191210174416 83 215 1.0 6.0 0.00 0.00 0.01 69 1015.7
20191210174315 83 199 3.0 7.0 0.00 0.00 0.01 69 1015.7
20191210174116 83 97 3.0 7.0 0.00 0.00 0.01 69 1015.7
20191210173915 83 119 0.0 7.0 0.00 0.00 0.01 69 1015.7
20191210173816 82 115 3.0 7.0 0.00 0.00 0.01 69 1015.8
20191210173715 83 73 0.0 7.0 0.00 0.00 0.01 69 1015.8
20191210173616 83 151 2.0 7.0 0.00 0.00 0.01 69 1015.8
20191210173515 83 205 1.0 7.0 0.00 0.00 0.01 69 1015.9
20191210173216 82 147 0.0 9.0 0.00 0.00 0.01 70 1015.9
20191210172915 82 82 1.0 9.0 0.00 0.00 0.01 70 1015.9
20191210172816 82 215 1.0 7.0 0.00 0.00 0.01 69 1015.9
20191210172415 82 45 3.0 7.0 0.00 0.00 0.01 70 1016.0
20191210172316 82 167 4.0 9.0 0.00 0.00 0.01 70 1016.0
20191210172216 82 78 5.0 9.0 0.00 0.00 0.01 70 1016.0
20191210172116 82 113 4.0 9.0 0.00 0.00 0.01 69 1016.0
20191210172016 83 71 2.0 9.0 0.00 0.00 0.01 69 1016.0
20191210171915 82 91 5.0 9.0 0.00 0.00 0.01 69 1016.0
20191210171815 83 115 6.0 6.0 0.00 0.00 0.01 69 1016.1
20191210171616 82 161 1.0 6.0 0.00 0.00 0.01 70 1016.1
20191210171216 83 82 0.0 7.0 0.00 0.00 0.01 70 1016.1
20191210171115 83 102 4.0 7.0 0.00 0.00 0.01 70 1016.1
20191210171016 82 182 0.0 7.0 0.00 0.00 0.01 70 1016.1